Atlantic City, NJ

1:22 PM EDT on October 20, 2017 (GMT -0400)
Atlantic City International

Weather History for KACY - January, 2013

Change the Weather History Date:

Thursday, January 10, 2013

  Actual Average Record
Temperature  
Mean Temperature 41 °F 33 °F  
Max Temperature 51 °F 42 °F 63 °F (1930)
Min Temperature 30 °F 24 °F -3 °F (1875)
Degree Days  
Heating Degree Days 24 32  
Month to date heating degree days 284 318  
Since 1 July heating degree days 1928 2087  
Cooling Degree Days 0 0  
Month to date cooling degree days 0 0  
Year to date cooling degree days 0 0  
Moisture  
Dew Point 26 °F    
Average Humidity 54    
Maximum Humidity 72    
Minimum Humidity 36    
Precipitation  
Precipitation 0.00 in 0.11 in 2.34 in (1977)
Month to date precipitation T 1.06  
Year to date precipitation T 1.06  
Snow  
Snow 0.00 in 0.20 in 3.30 in (1942)
Month to date snowfall T 1.2  
Since 1 July snowfall 2.5 5.1  
Snow Depth 0.00 in    
Sea Level Pressure  
Sea Level Pressure 30.49 in    
Wind  
Wind Speed 6 mph (WNW)    
Max Wind Speed 16 mph    
Max Gust Speed 25 mph    
Visibility 10 miles    
Events      
T = Trace of Precipitation, MM = Missing Value Source: NWS Daily Summary

Daily Weather History Graph

Daily Weather History Graph

Search for Another Location

Airport or City:

Trip Planner

Search our weather history database for the weather conditions in past years. The results will help you decide how hot, cold, wet, or windy it might be!

Date:

Astronomy

Jan. 10, 2013 Rise Set
Actual Time 7:18 AM EST 4:54 PM EST
Civil Twilight 6:48 AM EST 5:23 PM EST
Nautical Twilight 6:15 AM EST 5:57 PM EST
Astronomical Twilight 5:42 AM EST 6:29 PM EST
Moon 5:55 AM EST (1/10) 3:58 PM EST (1/10)
Length of Visible Light 10h 35m
Length of Day
9h 35m
Waning Crescent, 2% of the Moon is Illuminated
Jan 10
Waning Crescent
Jan 11
New
Jan 18
First Quarter
Jan 26
Full
Feb 3
Last Quarter

Hourly Weather History & Observations

Time (EST) Temp. Windchill Dew Point Humidity Pressure Visibility Wind Dir Wind Speed Gust Speed Precip Events Conditions
12:54 AM 46.9 °F - 32.0 °F 56% 30.34 in 10.0 mi West 8.1 mph - N/A   Clear
1:54 AM 45.0 °F 41.2 °F 30.9 °F 58% 30.36 in 10.0 mi West 6.9 mph - N/A   Clear
2:54 AM 44.1 °F 40.8 °F 30.0 °F 58% 30.38 in 10.0 mi West 5.8 mph - N/A   Clear
3:54 AM 42.1 °F 37.7 °F 28.9 °F 60% 30.39 in 10.0 mi WSW 6.9 mph - N/A   Clear
4:54 AM 39.9 °F 35.1 °F 30.0 °F 68% 30.41 in 10.0 mi WSW 6.9 mph - N/A   Clear
5:54 AM 37.9 °F 33.5 °F 28.9 °F 70% 30.44 in 10.0 mi West 5.8 mph - N/A   Clear
6:54 AM 36.0 °F 33.3 °F 27.0 °F 70% 30.47 in 10.0 mi West 3.5 mph - N/A   Clear
7:54 AM 33.1 °F 30.0 °F 25.0 °F 72% 30.50 in 10.0 mi NW 3.5 mph - N/A   Clear
8:54 AM 42.1 °F 37.1 °F 27.0 °F 55% 30.53 in 10.0 mi WNW 8.1 mph - N/A   Clear
9:54 AM 46.0 °F 39.9 °F 26.1 °F 46% 30.54 in 10.0 mi NNW 13.8 mph 18.4 mph N/A   Clear
10:54 AM 46.9 °F - 25.0 °F 42% 30.53 in 10.0 mi NW 13.8 mph - N/A   Clear
11:54 AM 48.0 °F - 25.0 °F 41% 30.51 in 10.0 mi NW 9.2 mph 20.7 mph N/A   Clear
12:54 PM 48.9 °F - 24.1 °F 38% 30.49 in 10.0 mi WNW 13.8 mph - N/A   Clear
1:54 PM 50.0 °F - 25.0 °F 38% 30.50 in 10.0 mi WNW 12.7 mph - N/A   Clear
2:54 PM 50.0 °F - 24.1 °F 36% 30.51 in 10.0 mi WNW 12.7 mph - N/A   Clear
3:54 PM 48.9 °F - 25.0 °F 39% 30.52 in 10.0 mi WNW 8.1 mph - N/A   Clear
4:54 PM 43.0 °F 39.5 °F 25.0 °F 49% 30.52 in 10.0 mi NW 5.8 mph - N/A   Clear
5:54 PM 41.0 °F - 25.0 °F 53% 30.52 in 10.0 mi Calm Calm - N/A   Clear
6:54 PM 39.9 °F - 26.1 °F 58% 30.53 in 10.0 mi Calm Calm - N/A   Clear
7:54 PM 34.0 °F - 25.0 °F 70% 30.54 in 10.0 mi Calm Calm - N/A   Clear
8:54 PM 33.1 °F - 25.0 °F 72% 30.53 in 10.0 mi Calm Calm - N/A   Clear
9:54 PM 32.0 °F - 25.0 °F 75% 30.53 in 10.0 mi Calm Calm - N/A   Clear
10:54 PM 37.0 °F - 25.0 °F 62% 30.54 in 10.0 mi Calm Calm - N/A   Clear
11:54 PM 36.0 °F - 25.0 °F 64% 30.52 in 10.0 mi Calm Calm - N/A   Clear